Volver al catálogo

TITAN 4 CENTAUR R/B

ActivoGEO
NORAD 22989·ROCKET BODY·🇺🇸 United States

Lanzado Feb 7, 1994 desde Cape Canaveral Space Force Station

Loading…

TLE

ActualizadoSource: Space-Track

Época: Sep 14, 2026, 03:09 UTC

1 22989U 94009B   26257.13132934 -.00000121  00000-0  00000-0 0  9995
2 22989  16.9483  21.8066 0014717 239.8288 120.0375  1.00584106 26186

Sigue TITAN 4 CENTAUR R/B en tiempo real con AllMySat

Download on the App Store